Temp
21 22 21 19 21 20 22 23 21 20 18 18 18 18 18 18 18 18 18 18 18 19 20 20 20 21 21 22 22 22 22 22 19 20 21 20 20 20 20 20 20 20 20
22 20 20 19 19 19 21 20 22 19 19 19 18 17 17 17 17 17 18 18 18 19 19 19 19 20 21 21 21 21 21 21 21 19 20 20 20 20 20 20 20 20 20
22 21 19 19 18 19 19 19 19 19 19 18 18 17 17 17 17 17 18 18 18 19 19 19 19 19 20 20 20 20 20 20 21 21 20 20 21 21 20 21 21 21 21
21 20 20 19 19 18 18 18 18 18 18 18 18 17 17 17 17 18 18 18 18 18 18 19 19 19 19 19 20 20 20 20 21 21 21 20 21 21 21 21 21 21 21
20 20 19 19 18 18 18 18 18 18 18 18 18 17 17 17 17 18 18 18 18 18 18 18 19 19 19 19 19 19 19 20 19 19 19 19 19 20 21 20 20 21 21
19 19 20 18 18 19 19 18 18 18 17 17 16 17 17 17 17 17 18 18 19 19 18 19 19 19 19 19 19 19 19 19 19 19 18 18 19 19 20 20 20 20 19
17 17 18 18 18 17 17 17 17 17 16 17 17 17 17 17 18 18 18 18 18 18 18 19 19 19 19 19 19 19 19 19 19 19 19 18 19 19 19 19 19 19 19
17 16 17 16 16 16 16 16 16 16 16 16 16 17 17 18 18 18 18 18 18 19 19 19 19 19 19 19 19 19 19 19 19 19 20 20 20 20 20 20 19 19 19
17 16 16 16 16 16 16 16 16 16 16 17 17 17 18 18 18 18 18 18 18 18 19 19 19 19 20 19 19 19 19 19 19 19 19 20 20 20 19 19 18 18 18
17 17 17 16 16 16 16 17 17 17 17 17 18 18 18 18 18 18 18 18 18 19 19 19 19 20 20 19 19 19 19 19 19 19 19 19 19 19 19 19 19 19 18
18 18 17 17 17 16 17 17 17 17 18 18 18 18 18 18 18 18 18 18 19 18 18 19 19 20 20 20 20 19 19 20 19 19 18 19 19 20 20 20 20 19 18
19 18 18 17 17 17 17 17 18 18 18 18 18 18 18 18 18 18 18 18 18 18 18 18 18 19 19 20 20 20 19 19 18 18 19 19 19 19 20 20 20 20 20
19 18 18 18 18 18 18 18 18 18 18 18 18 18 18 18 18 19 19 18 18 18 19 19 18 19 19 19 20 20 19 18 18 18 18 19 20 20 21 20 20 21 20
19 19 18 18 18 18 18 18 18 18 18 18 18 18 19 19 19 19 19 18 18 18 18 18 18 18 19 18 19 19 19 19 19 18 18 19 20 20 19 19 20 20 19
19 19 19 19 19 18 18 18 18 18 19 19 19 19 19 18 19 20 19 19 19 19 18 17 18 18 18 19 19 19 19 19 18 18 18 19 18 18 19 19 20 19 19
20 20 19 19 19 19 18 18 19 20 20 20 20 20 20 21 21 20 20 19 19 20 17 16 17 18 18 18 19 19 19 19 19 19 19 19 18 18 19 19 19 19 18
20 20 20 20 19 19 19 19 18 20 20 20 21 22 21 21 20 21 21 21 19 18 17 17 16 17 18 19 20 19 19 20 21 20 19 18 18 18 18 19 19 19 18
21 21 21 20 20 20 19 20 20 20 20 21 22 22 22 22 21 20 20 20 19 18 18 18 18 19 19 20 20 20 20 20 20 19 19 19 17 17 18 19 19 19 18
20 21 21 21 21 22 21 21 21 20 20 22 22 22 22 22 22 21 18 18 19 18 18 18 19 19 19 20 20 20 20 20 20 20 21 21 19 17 19 19 19 19 18
20 21 21 21 22 22 23 23 22 22 22 22 22 22 23 21 20 19 19 19 18 17 17 18 19 19 20 20 20 20 19 19 20 20 19 20 19 19 20 19 19 18 18
20 20 21 21 21 22 22 22 23 22 22 21 22 22 22 21 21 21 20 19 19 18 18 18 18 18 19 20 20 19 19 19 19 19 20 20 20 19 19 19 19 18 18
22 22 21 20 21 21 21 22 22 22 22 22 22 22 22 21 22 21 20 20 20 20 19 19 20 19 20 20 19 19 19 19 19 18 16 16 17 17 18 18 18 18 18
22 21 21 21 21 21 21 22 22 22 22 23 23 23 22 21 21 21 19 20 20 20 20 20 20 20 19 19 20 20 19 18 19 18 16 15 16 16 16 15 16 15 15
17 22 22 21 22 22 21 22 22 22 22 21 21 21 20 20 20 20 20 20 20 20 20 21 21 21 19 20 21 19 19 17 17 16 16 17 16 15 16 16 16 16 16
22 22 25 25 25 24 23 23 22 22 23 23 22 22 22 21 21 21 20 20 20 20 21 21 21 22 21 20 20 20 20 18 19 18 15 16 15 13 14 14 13 16 15
23 24 24 25 25 24 23 23 24 24 24 22 23 22 21 20 22 20 20 20 21 20 19 19 19 19 19 20 20 19 19 20 20 20 16 14 14 14 13 12 12 11 10
Height
757 758 763 766 772 775 778 779 784 789 797 800 803 806 802 802 807 811 813 815 817 817 819 817 819 819 820 821 822 823 825 829 830 834 837 840 842 843 845 846 848 847 848
758 758 760 765 770 772 774 780 781 784 790 796 798 801 801 803 804 805 810 813 813 817 817 818 817 818 818 820 822 823 825 829 831 835 838 839 838 839 840 845 846 846 846
756 758 758 757 755 768 774 778 778 783 787 792 794 799 799 801 800 802 805 809 812 814 818 818 816 817 819 821 823 824 826 827 829 832 835 837 837 838 839 842 844 845 844
749 751 752 755 753 762 769 780 780 785 784 789 793 794 795 799 799 799 803 804 809 812 814 817 818 819 821 821 822 823 825 826 828 830 833 834 835 837 837 840 841 841 840
748 748 749 755 759 771 773 769 777 780 783 785 788 791 793 796 798 801 801 803 807 810 811 815 818 818 820 821 822 823 825 827 827 828 831 830 831 833 836 838 841 840 841
747 748 753 757 762 767 764 765 775 779 780 782 787 789 791 795 795 800 799 802 805 808 810 814 815 818 819 820 821 821 823 826 827 828 829 831 833 833 835 838 838 839 838
748 747 751 756 758 763 754 767 774 775 777 779 781 785 788 791 794 796 798 801 803 805 808 811 812 815 816 817 819 819 820 823 825 826 827 830 831 832 833 833 835 836 836
749 749 750 755 758 761 763 768 771 772 772 776 779 784 787 788 791 795 797 799 801 804 806 808 810 811 813 813 816 817 819 820 821 824 825 826 827 828 829 830 832 833 834
752 750 750 752 758 760 762 764 767 769 771 774 778 782 784 785 789 792 794 797 800 802 804 806 807 808 810 811 813 816 816 817 820 822 822 823 824 824 826 827 828 830 829
750 751 751 753 753 757 762 763 764 767 769 773 778 781 783 787 789 790 792 795 798 800 803 803 803 803 805 808 810 812 812 813 816 818 819 820 820 820 820 822 824 825 826
748 752 754 756 758 758 760 761 764 768 770 775 778 780 783 784 786 788 790 793 795 797 799 799 799 799 801 803 806 808 807 809 812 814 815 816 815 814 814 815 817 818 818
745 750 752 754 756 758 760 763 766 768 771 774 776 778 781 782 784 785 786 788 790 792 793 796 797 794 796 799 801 802 803 806 809 810 810 810 809 809 809 809 809 809 808
743 747 749 751 754 755 758 761 764 766 769 771 773 775 776 777 779 779 781 783 785 787 788 789 792 793 793 793 793 797 800 802 803 804 803 803 803 803 804 804 804 802 801
740 744 747 749 752 754 755 757 760 763 765 767 768 769 770 771 772 772 775 778 780 783 783 785 786 789 789 790 791 793 795 797 797 798 797 797 797 798 798 799 798 796 796
738 741 744 746 749 751 752 753 756 757 759 760 762 763 764 765 765 765 767 769 772 773 777 779 781 783 784 785 786 788 790 791 792 791 791 791 790 791 792 793 793 793 792
734 737 740 743 745 746 748 750 751 751 753 755 757 758 758 759 758 760 762 763 765 769 773 775 775 776 777 779 780 781 781 782 782 783 783 782 781 781 783 785 787 787 787
728 732 736 738 740 741 742 743 745 747 749 750 750 750 752 754 755 756 757 758 760 764 766 767 769 770 769 770 772 773 772 773 773 772 772 773 773 774 776 776 777 778 779
723 726 729 732 734 735 735 736 737 740 741 741 742 744 746 746 747 750 754 755 757 757 757 758 760 761 762 762 763 764 764 764 764 763 763 763 764 765 765 766 768 769 770
716 718 721 723 726 727 727 729 730 732 733 734 735 737 737 738 739 741 745 747 749 750 751 751 750 751 752 753 753 754 754 755 755 754 753 750 752 755 756 757 758 759 761
708 710 713 715 717 718 719 719 720 722 724 725 727 727 729 730 731 731 732 734 736 738 740 741 740 741 742 742 744 745 746 748 747 746 745 745 744 745 745 746 749 750 752
702 705 708 707 707 709 710 712 713 714 715 716 716 718 719 720 720 721 722 724 724 725 725 727 730 733 731 732 735 736 737 736 736 737 737 735 734 734 736 737 736 737 741
695 700 702 705 704 705 705 704 705 705 706 706 707 709 709 711 709 710 712 713 714 715 716 718 718 720 720 721 724 726 726 724 725 729 735 734 729 729 726 725 726 727 728
692 690 693 699 697 695 693 695 697 698 699 699 699 700 699 700 701 700 701 703 704 703 704 706 708 708 710 711 711 711 713 715 719 720 721 722 725 720 717 713 712 714 713
693 688 686 688 689 685 685 686 688 691 694 694 693 691 689 690 690 690 690 691 692 692 693 694 696 695 698 700 701 704 708 708 711 711 710 707 706 706 707 701 700 698 698
678 681 678 677 676 673 675 679 681 682 681 681 681 679 678 677 678 678 679 680 681 682 683 684 684 686 688 690 692 696 693 698 697 695 696 694 692 691 691 691 689 691 690
670 670 670 669 669 670 670 669 668 670 666 667 668 665 666 669 670 670 669 671 674 675 676 678 682 682 683 677 679 680 681 680 676 674 681 682 682 682 681 680 684 682 683
Wind_Speed
32 34 34 39 39 38 35 21 15 13 14 13 12 11 11 13 15 13 10 8 10 9 7 8 6 8 11 11 11 12 11 10 13 14 18 14 9 11 13 8 7 6 7
22 27 32 33 34 34 33 20 15 17 17 12 12 15 14 15 14 13 12 11 10 9 7 8 7 6 9 8 7 10 9 12 15 14 15 13 10 10 7 8 8 9 10
14 17 26 31 33 33 31 23 18 21 20 15 14 16 14 14 14 15 15 9 11 8 8 7 5 6 9 9 8 7 7 7 9 10 8 10 10 9 9 8 8 7 10
10 23 27 27 28 26 21 18 16 17 17 13 15 16 15 14 14 16 16 12 10 11 9 8 8 10 9 9 9 7 5 7 6 2 3 8 13 14 13 9 10 9 13
7 22 25 24 20 15 15 14 18 18 16 17 19 16 14 15 14 15 15 13 15 13 10 10 10 7 8 7 7 6 5 6 3 4 6 8 5 14 19 7 6 3 6
7 9 15 15 15 24 16 22 22 22 22 25 18 17 17 19 16 16 16 17 15 13 13 12 9 11 10 8 7 5 3 5 4 2 3 1 4 8 7 4 2 1 2
5 8 12 16 16 19 27 23 25 26 23 17 16 17 16 16 14 15 15 15 13 14 13 13 10 9 12 13 12 11 11 11 12 12 11 9 9 6 4 2 2 3 5
4 4 6 9 12 14 17 18 16 15 15 17 16 17 17 16 16 16 15 14 13 14 15 14 14 13 10 18 12 11 10 10 11 15 17 13 14 12 11 12 10 9 12
8 9 8 9 13 15 14 15 15 15 16 16 16 16 15 13 13 16 18 18 14 12 13 14 17 16 11 11 15 16 16 12 12 13 18 17 12 10 10 10 13 11 13
14 13 11 10 11 13 15 17 16 17 17 15 14 14 13 15 16 14 16 20 18 15 15 16 16 17 15 17 18 18 16 18 17 16 15 17 22 23 19 21 21 20 18
14 15 16 17 16 17 15 15 14 17 14 16 16 17 17 17 17 17 16 19 21 19 18 18 19 22 23 22 22 22 22 18 15 15 15 14 15 16 19 22 26 29 27
17 16 17 17 16 16 14 15 17 15 16 18 17 19 19 19 19 19 22 23 22 23 23 17 11 8 20 29 26 27 25 20 18 19 20 20 19 19 20 22 23 28 30
15 17 18 17 18 17 18 17 17 17 16 15 17 19 21 23 24 26 26 26 25 24 23 24 19 15 10 12 25 31 27 24 23 23 25 25 25 26 25 24 25 20 23
20 19 19 18 17 17 19 20 19 18 18 17 22 24 25 26 28 31 31 30 30 29 29 25 23 22 24 17 11 22 25 26 27 28 29 28 29 28 27 25 20 16 16
23 22 21 20 18 23 21 21 23 24 25 26 27 26 24 22 27 32 34 34 34 33 32 28 26 25 24 25 25 26 28 28 29 32 31 31 31 28 26 25 21 18 17
25 23 23 22 22 24 26 25 27 25 27 28 26 23 22 14 12 7 13 30 33 31 26 26 27 28 28 28 28 27 27 28 29 30 32 31 31 30 29 27 24 24 21
26 26 26 26 24 26 27 25 22 31 31 28 26 24 23 22 19 17 14 9 22 25 23 27 27 26 30 28 28 29 30 28 27 31 31 31 32 28 31 30 27 24 20
30 27 28 26 27 26 27 26 25 20 23 28 33 31 29 26 26 22 20 19 21 25 29 31 31 30 30 30 30 28 27 25 23 22 22 25 26 31 34 32 26 27 25
32 28 29 25 22 18 26 28 25 26 26 28 27 24 27 30 31 28 25 26 29 29 31 32 34 34 33 33 33 33 33 29 28 29 28 29 34 35 36 33 30 28 25
34 34 31 27 23 21 23 22 18 26 30 28 27 28 26 22 24 26 32 35 33 32 32 34 36 36 35 35 35 37 35 36 38 37 35 34 38 34 37 37 34 30 29
27 26 32 32 30 29 24 21 23 21 26 29 32 34 31 27 23 25 25 30 36 37 38 36 33 33 37 36 35 34 34 38 40 39 37 33 34 37 41 40 37 33 31
24 29 25 28 27 23 23 28 26 28 27 30 32 30 32 31 27 32 29 29 30 33 38 36 36 39 41 39 35 30 33 36 30 19 32 37 36 41 43 41 38 36 35
28 31 28 32 29 30 29 31 27 26 28 32 35 34 33 35 36 34 32 34 36 36 37 37 36 38 38 40 38 34 27 15 18 21 25 34 36 37 37 37 38 35 33
39 30 30 33 29 29 33 29 26 22 22 22 25 29 29 29 29 31 32 32 33 36 34 36 40 38 37 45 39 26 15 11 18 25 24 24 30 31 42 37 36 37 35
25 31 25 18 17 16 19 16 11 16 21 24 29 33 34 34 35 35 36 35 33 33 35 37 39 39 38 32 24 28 29 23 30 43 40 35 28 25 29 31 38 34 35
17 18 18 15 17 18 13 12 16 31 31 30 28 35 34 26 24 38 35 27 28 25 23 16 19 21 19 18 20 24 24 30 35 33 39 38 40 35 29 29 26 15 9
Wind_Direction
182 188 186 189 206 213 213 209 220 198 189 178 193 219 211 204 209 210 208 198 198 184 191 152 139 107 107 105 101 105 104 125 120 128 154 160 178 177 181 208 220 218 250
204 193 186 189 201 207 212 208 211 206 181 186 197 211 205 203 197 188 187 193 179 189 159 166 149 137 111 110 115 116 119 123 139 147 167 171 171 183 190 223 232 238 271
253 220 181 187 187 196 208 207 197 197 191 197 203 204 206 199 190 187 178 181 188 198 205 193 164 161 155 153 138 131 136 133 130 132 176 190 196 207 201 229 242 255 252
247 204 193 198 197 199 199 211 201 200 200 209 212 208 200 204 197 182 182 182 194 200 195 195 184 177 169 140 149 133 148 132 152 177 224 207 215 223 228 244 263 305 285
275 194 197 205 190 190 189 202 209 209 207 209 203 202 199 196 198 194 187 193 198 188 195 196 200 190 182 177 168 163 126 152 131 71 56 33 248 215 218 228 188 113 90
256 232 206 216 219 205 202 215 214 213 204 193 195 206 199 197 201 210 197 204 195 191 193 199 202 204 204 197 196 189 172 210 220 205 149 61 54 95 108 122 112 68 343
212 199 192 182 172 163 193 184 194 188 183 195 203 199 198 196 199 201 198 200 199 198 200 204 208 213 223 224 233 237 251 247 246 252 258 239 247 239 224 220 220 252 270
182 194 218 148 165 177 179 185 191 195 196 199 192 200 203 207 202 208 201 200 206 209 209 210 215 223 246 236 220 219 228 239 247 247 247 255 252 249 252 247 255 272 274
188 195 206 200 180 178 175 169 171 173 182 187 195 207 207 210 203 192 204 209 208 205 214 219 225 230 232 214 218 228 232 239 253 266 259 258 254 245 237 238 235 249 268
189 189 191 196 184 181 183 183 176 180 182 187 195 204 201 199 196 204 212 213 222 228 230 227 226 233 235 231 231 233 230 244 243 248 258 263 259 253 247 246 252 254 251
184 185 184 188 194 194 188 179 184 189 180 189 198 204 208 210 214 215 213 216 222 224 235 245 250 244 236 235 238 233 239 248 240 244 255 263 265 260 259 256 254 254 245
183 182 182 188 192 194 192 202 194 183 195 199 201 208 215 218 223 220 221 221 222 227 234 242 280 271 251 245 239 238 239 239 239 242 251 257 259 261 264 271 276 272 260
184 192 191 196 196 201 192 189 193 196 204 208 205 207 217 223 227 230 231 229 230 232 239 248 249 256 272 291 232 235 238 240 244 248 252 258 260 263 268 269 279 264 256
190 195 193 192 193 191 186 190 200 206 210 212 215 222 230 232 234 236 233 233 236 235 239 245 253 256 263 271 265 225 237 244 247 249 255 263 269 269 266 266 260 250 235
192 190 188 188 189 191 204 203 207 213 216 220 226 230 233 239 240 239 239 234 234 235 237 242 249 253 256 258 254 247 246 250 251 254 256 261 264 265 263 258 250 255 251
190 189 193 197 203 207 208 214 223 226 221 229 239 239 226 200 178 189 223 239 241 239 231 235 241 243 245 248 249 249 248 250 254 254 254 252 251 256 254 249 245 257 256
192 194 201 206 209 210 214 216 224 231 234 234 234 238 241 240 239 239 233 224 227 228 222 228 230 235 238 241 249 251 250 257 264 256 251 252 253 251 251 243 240 251 235
203 202 211 216 215 217 211 217 224 224 227 235 240 244 247 254 254 246 227 208 199 207 215 221 227 234 240 243 246 251 256 258 252 228 242 252 269 249 236 237 231 229 231
206 208 217 228 237 233 220 224 223 218 220 230 236 241 247 249 252 253 232 235 235 234 236 236 237 239 241 244 247 253 257 256 251 242 249 259 249 237 230 227 231 227 225
206 214 218 228 240 244 245 249 233 221 223 224 223 227 242 243 243 238 238 241 242 238 237 241 244 245 248 253 257 259 254 254 254 253 251 249 242 244 235 236 235 228 225
207 213 220 222 225 237 247 243 241 240 226 221 229 241 245 233 227 235 242 247 246 246 248 245 243 246 248 250 256 260 259 260 260 254 253 253 248 239 237 234 234 231 234
228 225 224 225 227 233 241 242 245 244 234 225 229 229 236 229 238 238 238 243 252 261 262 259 257 252 253 251 252 253 252 251 255 280 278 261 248 241 237 237 229 225 227
252 224 223 232 224 230 232 235 241 243 240 234 233 238 245 238 245 245 238 245 248 250 256 257 256 252 255 255 254 246 249 262 277 296 278 280 268 247 237 227 224 223 220
257 232 220 222 218 231 244 237 238 246 243 241 233 233 232 232 233 236 242 245 248 243 244 251 254 259 257 259 245 236 261 281 297 291 281 306 280 273 252 231 229 226 223
247 252 248 250 244 209 202 206 231 260 254 253 250 242 242 243 248 254 250 246 241 245 248 246 252 249 257 242 240 260 262 278 279 292 295 276 286 277 251 253 246 233 229
237 241 253 264 264 270 240 210 291 291 274 268 267 237 237 228 246 258 257 252 260 266 250 249 243 235 247 265 256 243 251 273 269 274 280 273 285 275 263 244 241 246 210